Wetbulb
74.21 74.45 74.73 74.94 74.10 73.66 73.30 73.58 72.89 72.43 71.99 71.88 71.51 71.11 70.71 69.85 69.67 69.95 70.00 70.65 70.19 70.72 70.37 70.98 70.05 69.15 68.81 69.31 69.08 68.63 67.59 67.07 64.98 64.93 63.64 65.38 67.18 67.01 68.25 70.20 69.07 68.58 69.39
73.61 74.08 72.39 73.29 74.06 74.65 74.20 74.09 74.05 72.51 72.49 73.16 72.21 70.71 69.47 69.45 69.48 69.15 69.33 70.20 68.45 69.10 69.44 68.61 69.46 67.90 66.43 68.47 67.20 67.02 67.41 67.73 66.33 64.81 64.12 63.90 64.23 66.78 67.10 66.98 68.81 69.48 69.19
70.07 65.58 66.34 66.07 69.92 74.03 74.41 74.40 74.18 73.83 73.32 72.21 70.24 68.33 68.71 68.56 68.69 68.76 68.36 68.15 68.18 68.43 68.54 67.32 67.50 65.71 67.14 65.96 66.32 66.30 65.55 66.77 65.76 63.72 63.40 64.81 64.68 65.62 66.53 67.91 67.93 67.14 67.55
66.30 65.83 65.07 65.01 68.47 74.03 74.22 73.63 73.67 73.74 71.84 70.15 69.46 69.50 68.72 67.93 67.50 67.12 66.80 67.52 67.37 66.84 66.50 66.35 67.19 66.55 65.49 64.61 64.69 65.71 65.37 65.49 65.71 65.03 63.76 62.84 63.54 64.76 66.42 62.84 60.21 62.56 62.04
64.30 62.82 63.64 65.74 68.08 69.45 71.59 72.75 72.25 71.46 70.49 69.69 69.03 67.62 66.27 65.64 66.76 66.06 66.33 65.74 65.95 66.71 65.74 67.12 66.47 66.25 67.21 65.55 64.54 63.43 64.26 64.81 64.67 64.31 63.76 61.68 60.91 61.84 61.89 61.53 59.16 58.51 59.20
61.58 62.26 63.51 63.90 63.87 67.10 70.07 70.14 71.11 70.52 69.21 67.59 67.30 66.31 63.64 62.95 62.85 65.38 66.85 65.80 66.49 65.47 65.73 63.17 64.13 66.49 65.96 66.03 66.07 65.56 64.54 64.00 63.45 63.42 62.32 61.01 60.42 61.90 59.76 59.02 57.71 56.66 55.13
62.37 62.98 63.65 63.85 64.91 65.24 67.08 69.58 69.58 69.30 66.38 66.92 66.92 66.29 64.85 62.00 61.64 63.15 65.87 65.22 63.60 64.21 62.95 62.39 63.07 65.40 64.83 63.38 64.03 64.86 64.95 64.36 63.30 61.22 61.16 60.80 60.40 60.68 59.55 57.91 57.93 57.48 57.71
63.82 63.61 65.27 65.89 66.56 66.58 68.08 67.23 66.54 67.32 66.11 65.19 64.83 64.11 62.36 61.38 61.41 62.08 64.42 65.30 64.48 64.92 63.42 63.11 62.68 62.95 63.91 63.61 62.30 61.23 65.08 64.25 62.89 62.96 60.96 61.35 61.72 61.92 61.11 60.32 58.89 59.42 60.94
65.63 64.67 66.43 66.70 66.29 66.54 66.21 66.05 66.14 65.26 63.93 62.59 62.19 62.80 61.33 63.39 62.43 61.32 62.35 63.32 63.59 63.74 63.74 63.69 63.59 63.49 62.90 62.18 60.89 63.01 63.42 63.61 62.98 62.96 62.29 61.71 61.16 61.30 61.96 60.93 58.58 58.19 57.77
64.70 64.83 65.07 64.59 64.65 64.20 64.31 64.64 65.33 64.83 64.85 62.40 61.83 61.23 61.80 62.82 60.65 59.94 60.62 63.54 63.16 63.18 62.72 62.46 63.04 63.74 61.05 60.09 61.96 61.90 61.32 60.93 60.89 61.90 61.91 60.95 61.01 61.15 62.10 61.87 60.59 58.35 56.68
65.21 64.37 64.45 64.80 64.60 64.51 64.35 64.72 65.22 65.21 64.19 62.16 60.53 60.70 62.30 60.79 60.87 58.41 57.53 63.68 63.82 62.79 62.27 61.65 62.61 60.18 57.97 57.85 59.29 62.18 61.45 61.55 60.82 60.13 61.57 62.39 62.04 61.37 62.14 61.93 62.14 60.80 57.32
63.55 64.18 64.23 63.84 64.23 65.22 63.60 64.05 63.77 63.29 62.73 62.84 62.02 62.19 63.19 62.69 59.82 59.18 56.26 59.48 61.90 63.32 62.74 62.87 62.79 57.73 55.42 55.04 58.03 59.25 58.87 59.75 59.79 60.01 60.32 61.43 61.90 62.52 63.35 63.60 62.90 62.77 61.43
62.78 61.63 61.71 62.50 63.20 63.51 62.27 62.62 62.68 63.04 62.43 62.15 61.17 60.54 60.13 61.88 63.83 57.75 55.54 57.45 58.82 63.50 63.46 62.19 59.64 55.46 54.13 55.21 56.93 57.85 58.29 61.72 60.73 58.91 59.11 60.30 62.52 62.97 63.12 62.41 62.02 61.63 60.43
61.11 61.75 62.19 62.14 61.95 62.25 62.60 62.98 62.83 62.71 62.71 62.23 61.19 59.74 61.23 61.28 60.96 60.95 58.78 57.83 58.60 61.70 62.25 62.20 60.77 59.28 58.74 59.76 59.42 59.30 61.04 61.99 61.57 60.03 58.88 59.15 59.19 59.88 60.86 61.82 60.74 60.07 58.80
62.29 61.66 60.71 60.81 61.43 62.15 62.71 63.26 63.11 63.51 62.69 62.19 62.17 62.89 61.83 59.14 60.35 58.25 57.69 59.76 60.94 60.21 61.86 62.72 61.27 61.12 60.30 60.06 59.86 60.89 61.15 61.45 60.30 58.88 58.67 57.97 58.20 58.49 58.29 58.71 58.67 57.59 56.46
60.82 61.55 61.05 61.51 61.77 62.13 61.98 62.30 59.77 57.06 55.60 52.72 50.14 55.56 61.14 55.98 52.09 50.50 49.59 50.50 52.49 53.22 61.84 62.09 61.55 61.56 60.76 60.42 59.76 59.52 59.23 60.44 59.71 59.27 58.74 58.30 57.39 57.45 58.02 57.44 56.90 57.38 56.38
61.33 60.61 61.33 59.83 61.21 61.49 61.64 61.28 61.00 61.69 56.66 54.67 50.86 49.96 47.78 48.87 47.06 47.24 48.87 48.32 49.59 52.86 61.94 61.79 61.73 61.69 61.41 60.34 60.32 59.09 58.70 60.05 59.50 59.63 58.81 58.10 57.24 57.45 57.40 58.48 59.40 58.24 55.94
60.13 56.96 59.92 60.48 61.31 61.58 61.40 61.03 61.96 61.47 60.80 60.05 53.89 51.04 46.87 45.22 44.70 44.52 46.51 50.48 53.77 55.52 61.81 61.96 62.01 61.82 61.80 60.80 59.80 60.26 59.54 58.70 58.77 58.96 58.61 58.46 57.28 55.78 55.65 56.71 59.71 59.20 58.72
57.86 59.19 60.63 61.63 61.76 59.40 60.23 60.35 61.28 61.85 61.55 61.39 61.97 53.76 48.81 44.15 44.70 44.70 46.69 60.94 59.07 59.19 61.24 62.25 62.96 62.75 61.72 61.47 60.81 60.87 60.61 60.18 59.85 59.43 58.89 58.29 57.56 55.58 54.54 56.42 57.17 54.32 55.94
58.40 58.31 57.80 58.86 59.95 60.43 61.05 61.15 61.54 61.22 60.71 61.46 61.57 60.73 57.69 55.31 57.05 54.77 55.28 60.66 59.67 59.35 60.78 61.63 62.52 62.73 62.22 61.90 61.54 61.03 60.80 59.78 59.51 60.05 59.36 58.99 58.08 57.13 56.35 56.31 55.09 55.94 57.32
55.65 55.57 55.89 55.57 55.66 55.94 58.95 60.01 59.79 60.50 60.40 60.56 60.88 60.73 52.13 58.35 58.89 59.00 57.67 60.12 59.98 59.81 59.68 60.75 61.51 61.55 61.58 62.24 62.16 61.34 60.78 60.85 61.15 60.68 60.97 61.15 60.97 59.45 58.88 56.35 55.14 55.28 55.18
53.19 53.03 52.79 52.62 52.54 53.08 53.48 55.30 54.44 54.26 54.62 54.02 54.92 57.47 49.77 56.34 60.51 60.40 60.05 60.43 61.10 60.39 60.78 60.99 60.96 60.50 61.33 61.75 61.51 61.26 61.25 61.15 61.45 60.69 60.36 59.99 58.77 58.23 57.83 56.36 55.40 53.85 53.89
49.84 49.86 50.16 50.13 49.98 50.23 50.42 50.87 51.02 50.96 51.26 51.14 51.42 52.16 52.94 52.92 57.65 59.79 61.77 61.90 61.57 61.76 62.39 60.59 59.45 59.38 59.21 59.84 60.12 60.94 60.46 60.74 61.10 61.11 60.70 60.35 59.01 58.17 57.57 56.38 55.62 54.99 53.55
48.67 48.34 48.43 48.86 48.63 48.53 48.22 48.30 48.32 47.02 48.33 48.83 48.58 49.02 49.13 49.33 49.63 49.98 51.42 52.20 50.72 58.05 61.64 60.38 59.47 58.83 56.55 54.84 53.94 53.25 53.48 55.78 59.60 59.41 58.64 57.38 57.59 54.85 57.73 56.57 55.83 55.86 55.97
47.81 47.32 46.82 47.47 47.77 47.61 47.86 47.72 47.85 47.97 47.95 47.88 47.42 47.38 47.51 47.54 47.31 47.45 47.87 48.10 47.38 46.50 45.69 46.62 51.17 50.21 48.19 47.87 47.20 46.07 37.75 33.76 48.03 45.06 58.34 59.41 58.79 59.25 58.34 57.82 56.62 56.84 56.62
47.52 47.32 45.73 45.15 45.44 45.39 45.62 45.93 46.22 47.22 47.25 47.49 47.72 47.42 47.13 46.90 46.73 46.27 46.07 45.85 45.15 44.28 43.56 42.43 42.56 43.02 42.42 41.88 40.15 37.62 34.68 33.96 41.12 36.72 54.46 58.39 58.57 58.23 59.00 59.07 59.14 59.15 58.16
MSLP
1004.93 1005.68 1005.94 1005.04 1005.44 1005.30 1005.89 1006.79 1006.95 1006.92 1006.90 1007.19 1007.36 1007.75 1008.00 1008.26 1008.23 1008.31 1008.40 1008.39 1008.26 1007.87 1007.56 1007.51 1007.30 1007.24 1007.56 1007.64 1007.66 1007.93 1008.31 1008.68 1008.87 1008.76 1009.10 1009.34 1009.55 1009.81 1010.04 1010.25 1010.63 1010.94 1011.20
1005.72 1005.41 1005.20 1002.93 1004.75 1006.21 1006.39 1006.44 1006.15 1006.13 1006.17 1006.38 1006.81 1007.48 1007.78 1007.67 1007.40 1007.35 1007.54 1007.44 1007.57 1007.43 1007.12 1006.99 1006.75 1006.79 1006.86 1006.83 1006.99 1007.23 1007.38 1007.46 1007.81 1008.18 1008.54 1008.88 1009.02 1009.26 1009.48 1009.96 1010.26 1010.47 1010.79
1006.42 1006.01 1005.61 1005.42 1007.48 1006.42 1005.76 1005.62 1005.78 1005.91 1005.67 1006.10 1006.39 1006.66 1006.91 1007.04 1006.83 1006.50 1006.69 1006.84 1006.60 1006.47 1006.52 1006.38 1006.26 1006.39 1006.28 1006.29 1006.34 1006.52 1006.70 1006.83 1007.04 1007.42 1007.98 1008.32 1008.58 1008.86 1009.28 1009.57 1009.78 1010.16 1010.40
1007.01 1006.32 1005.87 1005.32 1006.29 1006.24 1005.33 1005.16 1005.36 1005.38 1005.59 1006.26 1005.78 1005.78 1006.01 1006.28 1005.92 1005.69 1006.02 1006.18 1005.94 1005.81 1005.84 1005.73 1005.50 1005.66 1005.64 1005.71 1005.86 1006.02 1006.25 1006.48 1006.71 1006.96 1007.36 1007.75 1008.05 1008.32 1008.57 1009.07 1009.72 1009.70 1009.93
1007.73 1006.87 1006.71 1006.37 1006.15 1005.45 1005.27 1004.26 1004.42 1004.34 1005.20 1005.30 1005.42 1005.02 1005.08 1005.38 1005.21 1005.23 1005.15 1005.41 1005.36 1005.09 1005.01 1005.06 1005.10 1005.15 1005.20 1005.16 1005.38 1005.55 1005.86 1006.02 1006.28 1006.62 1006.88 1007.16 1007.48 1007.75 1007.86 1008.40 1009.23 1009.82 1009.94
1007.03 1006.62 1006.35 1005.39 1004.98 1005.15 1005.38 1006.13 1005.35 1005.73 1004.87 1004.72 1004.74 1004.34 1004.34 1004.27 1004.02 1004.22 1004.10 1004.58 1004.60 1004.64 1004.46 1004.65 1004.67 1004.67 1004.73 1004.71 1004.79 1004.96 1005.23 1005.63 1005.94 1006.20 1006.35 1006.46 1006.80 1007.12 1007.57 1008.00 1008.90 1009.79 1010.77
1006.75 1006.16 1005.84 1005.78 1005.11 1005.26 1005.99 1005.46 1005.28 1004.51 1004.12 1003.98 1003.79 1003.50 1003.39 1003.12 1003.02 1003.39 1003.53 1003.95 1003.92 1003.91 1003.95 1004.22 1004.41 1004.44 1004.55 1004.58 1004.56 1004.80 1005.00 1005.28 1005.33 1005.66 1005.87 1005.87 1006.40 1006.46 1006.94 1007.68 1008.64 1009.29 1009.72
1006.66 1006.19 1005.73 1005.71 1005.43 1005.34 1005.14 1004.45 1004.45 1003.95 1003.62 1003.52 1003.09 1002.56 1002.41 1002.30 1002.06 1002.20 1002.40 1002.93 1003.12 1002.95 1003.37 1003.45 1003.62 1004.05 1004.21 1004.19 1004.42 1004.75 1004.94 1005.20 1005.37 1005.52 1005.49 1005.68 1005.92 1006.14 1006.98 1007.68 1008.50 1009.41 1010.01
1006.65 1006.30 1005.76 1005.33 1005.00 1004.60 1004.00 1003.72 1003.53 1003.38 1003.25 1002.89 1002.26 1001.76 1001.78 1001.58 1001.37 1001.65 1001.96 1001.91 1002.07 1002.44 1002.78 1002.85 1003.00 1003.62 1003.73 1003.83 1004.08 1004.54 1004.94 1005.05 1005.13 1005.23 1005.35 1005.71 1006.03 1006.42 1006.88 1007.78 1008.63 1009.20 1009.97
1006.49 1005.98 1005.52 1005.11 1004.70 1004.30 1003.86 1003.41 1002.86 1002.47 1002.16 1001.82 1001.47 1001.26 1001.10 1000.93 1000.90 1001.14 1001.56 1001.35 1001.56 1001.87 1002.20 1002.40 1002.50 1002.94 1003.30 1003.64 1003.99 1004.34 1004.78 1004.95 1004.99 1005.18 1005.73 1006.05 1006.33 1006.65 1007.05 1007.52 1008.10 1008.82 1009.58
1005.85 1005.68 1005.35 1004.96 1004.55 1004.09 1003.62 1003.18 1002.76 1002.31 1001.98 1001.81 1001.48 1000.88 1000.73 1000.34 1000.02 1000.31 1000.72 1000.72 1000.83 1001.30 1001.64 1002.10 1002.08 1002.34 1002.98 1003.54 1003.86 1004.07 1004.47 1004.63 1004.94 1005.15 1005.59 1006.16 1006.72 1007.12 1007.44 1007.77 1008.07 1008.44 1009.16
1005.54 1005.28 1005.06 1004.68 1004.26 1003.78 1003.26 1002.83 1002.48 1002.02 1001.69 1001.22 1000.74 1000.12 999.69 999.13 999.16 999.39 999.90 1000.10 1000.21 1000.54 1000.68 1001.43 1001.56 1002.02 1002.42 1003.23 1003.77 1003.83 1004.22 1004.36 1004.76 1005.08 1005.68 1006.04 1006.48 1006.95 1007.30 1007.70 1007.98 1008.38 1008.56
1004.89 1004.68 1004.32 1003.98 1003.44 1002.97 1002.64 1002.02 1001.70 1001.17 1000.84 1000.26 999.89 999.42 998.92 998.68 998.43 998.72 999.09 999.70 999.75 999.80 1000.04 1000.75 1001.22 1001.86 1002.36 1003.27 1003.73 1003.93 1004.15 1004.48 1004.76 1005.15 1005.54 1005.75 1005.83 1006.10 1007.00 1007.65 1008.15 1008.41 1008.74
1004.35 1004.25 1003.70 1003.16 1002.65 1002.06 1001.60 1001.08 1000.81 1000.31 999.85 999.44 999.10 998.69 998.21 998.06 997.99 998.27 998.85 999.58 999.66 999.77 1000.00 1000.80 1001.38 1001.80 1002.25 1002.80 1003.49 1003.88 1004.02 1004.26 1004.37 1004.73 1005.06 1005.42 1005.83 1006.43 1007.00 1007.34 1008.02 1008.54 1009.09
1004.09 1003.70 1003.21 1002.69 1001.96 1001.28 1000.75 1000.31 1000.00 999.29 998.94 998.66 998.40 998.13 997.82 997.68 997.56 997.55 997.93 998.57 998.93 999.53 1000.08 1000.73 1001.35 1001.76 1002.30 1002.76 1003.20 1003.30 1003.69 1004.03 1004.30 1004.52 1004.95 1005.51 1005.97 1006.36 1006.92 1007.31 1007.86 1008.48 1008.93
1004.12 1003.52 1003.03 1002.39 1001.58 1000.91 1000.40 999.36 998.59 998.37 998.06 998.26 998.13 998.12 997.53 997.13 997.00 997.19 997.46 997.75 998.42 999.20 999.83 1000.22 1000.67 1001.21 1001.77 1002.24 1002.69 1003.09 1003.36 1003.80 1003.95 1004.33 1004.81 1005.27 1005.74 1006.12 1006.52 1007.12 1007.53 1008.08 1008.66
1004.25 1003.44 1003.12 1002.38 1001.58 1000.90 1000.12 999.52 998.62 997.45 997.77 997.67 997.67 997.32 997.40 997.22 997.28 997.36 997.59 998.15 998.70 999.28 999.37 999.62 999.98 1000.62 1001.27 1001.89 1002.24 1002.69 1003.01 1003.27 1003.52 1004.02 1004.47 1005.06 1005.54 1005.85 1006.26 1006.59 1007.04 1007.57 1008.24
1004.34 1003.88 1003.20 1002.44 1001.60 1000.80 1000.17 999.50 998.86 998.00 997.57 997.39 997.35 997.35 997.26 997.18 997.21 997.71 998.04 998.59 999.47 999.34 999.20 999.40 999.78 1000.24 1000.81 1001.31 1001.86 1002.27 1002.70 1003.05 1003.36 1003.66 1004.12 1004.52 1005.06 1005.41 1005.88 1006.14 1006.26 1006.66 1007.07
1004.59 1003.98 1003.32 1002.49 1001.67 1001.18 1000.58 999.66 998.82 998.24 997.36 997.42 997.15 997.65 997.76 997.83 997.78 998.06 998.31 997.98 998.66 998.95 998.96 999.21 999.45 999.86 1000.23 1000.82 1001.29 1001.65 1002.09 1002.42 1002.73 1003.09 1003.42 1003.84 1004.34 1004.84 1005.26 1005.44 1005.72 1005.89 1006.20
1004.82 1004.52 1003.82 1003.01 1002.18 1001.42 1000.71 1000.00 999.46 998.38 998.28 997.47 997.47 997.54 997.68 997.89 998.03 998.21 998.13 998.04 998.27 998.43 998.71 998.97 999.23 999.49 999.76 1000.19 1000.56 1000.91 1001.40 1001.70 1002.03 1002.35 1002.70 1003.13 1003.52 1003.89 1004.38 1004.88 1005.14 1005.46 1005.72
1005.57 1005.06 1004.44 1003.80 1003.14 1002.53 1001.52 1000.91 1000.34 999.80 999.44 998.90 998.46 998.09 998.14 998.08 997.95 997.92 998.08 997.98 998.03 998.15 998.26 998.61 998.84 999.05 999.25 999.51 999.81 1000.30 1000.49 1000.91 1001.34 1001.59 1001.88 1002.21 1002.60 1003.08 1003.38 1003.78 1004.17 1004.64 1004.86
1006.16 1005.76 1005.28 1004.78 1004.28 1003.60 1003.05 1002.34 1001.83 1001.30 1000.74 1000.20 999.87 999.14 998.52 998.40 998.16 998.04 997.88 997.72 997.68 997.88 998.03 998.20 998.36 998.43 998.58 998.77 999.00 999.32 999.72 1000.15 1000.44 1000.72 1001.06 1001.30 1001.65 1002.04 1002.41 1002.78 1003.22 1003.69 1004.10
1006.88 1006.46 1006.04 1005.62 1005.22 1004.67 1004.10 1003.63 1003.10 1002.63 1002.15 1001.79 1001.24 1000.59 1000.00 999.55 998.70 998.22 997.78 997.42 997.11 997.13 997.24 997.62 997.85 998.02 998.05 998.18 998.32 998.50 998.85 999.00 999.04 999.33 999.84 1000.39 1000.92 1001.34 1001.62 1002.05 1002.42 1002.93 1003.50
1007.55 1007.13 1006.82 1006.53 1006.10 1005.62 1005.23 1004.79 1004.36 1003.88 1003.43 1002.86 1002.47 1001.99 1001.52 1000.92 1000.28 999.95 999.46 998.99 998.74 997.74 997.03 997.09 997.40 997.72 998.26 998.64 998.80 998.59 998.38 998.37 998.40 998.46 998.92 999.69 1000.09 1000.44 1000.81 1001.21 1001.56 1001.91 1002.32
1008.10 1007.81 1007.52 1007.19 1006.84 1006.53 1006.14 1005.74 1005.32 1004.87 1004.46 1004.03 1003.60 1003.16 1002.72 1002.17 1001.58 1001.23 1000.89 1000.52 1000.32 1000.18 999.92 999.37 998.58 999.04 999.69 999.90 999.94 999.94 999.63 999.44 998.70 998.84 998.90 998.96 999.43 999.62 1000.04 1000.62 1000.96 1001.21 1001.62
1008.25 1008.10 1008.01 1007.82 1007.61 1007.36 1007.08 1006.74 1006.38 1006.04 1005.62 1005.22 1004.76 1004.27 1004.01 1003.55 1003.04 1002.68 1002.44 1002.00 1001.79 1001.54 1001.10 1000.04 1001.02 1001.08 1000.77 1000.90 1000.88 1000.52 1000.06 1000.01 999.47 998.95 999.08 999.12 999.07 999.70 1000.02 999.97 1000.28 1000.81 1001.09
Wind_Speed
8 7 3 17 7 6 6 5 6 5 6 7 6 4 5 5 5 5 6 8 9 10 8 10 12 8 7 7 7 7 8 8 10 5 4 5 11 10 9 9 9 9 6
7 11 19 22 9 3 4 7 7 8 7 7 5 5 4 7 7 6 7 8 8 10 11 9 12 5 9 8 6 9 9 10 8 11 7 5 5 11 12 11 8 7 8
10 12 9 5 24 11 11 10 8 9 9 6 5 5 7 7 7 6 6 7 7 9 10 9 10 6 7 5 7 7 6 6 7 4 5 4 5 4 7 9 10 8 8
4 7 6 14 18 14 14 11 11 11 8 6 7 7 6 7 6 5 5 8 7 6 8 8 6 6 7 6 6 7 6 7 6 6 5 4 4 5 8 7 4 5 8
6 4 5 6 7 12 17 14 8 7 7 8 7 6 7 5 5 7 6 6 8 8 6 6 6 8 11 8 5 6 7 7 6 6 5 4 5 4 9 5 5 6 7
5 7 6 6 2 4 14 20 17 20 8 6 7 7 7 6 13 12 8 8 7 7 7 5 6 7 7 9 10 11 8 8 8 5 4 6 6 7 6 8 8 9 4
5 6 5 7 8 7 8 15 16 12 5 7 8 9 9 9 15 11 13 8 7 6 6 6 5 4 7 5 6 5 7 8 5 5 6 5 6 7 9 10 9 9 4
6 7 6 9 9 11 8 5 7 5 5 6 9 9 8 8 17 17 18 11 7 7 8 8 8 7 7 7 5 4 5 5 5 4 5 5 4 7 10 9 10 7 6
6 7 8 7 8 8 9 9 8 5 5 7 6 9 9 13 15 14 13 7 7 8 8 7 8 8 10 11 5 5 5 4 6 8 7 10 13 13 10 8 7 9 3
7 7 7 6 6 7 7 8 6 4 8 5 8 10 15 15 10 13 13 6 7 7 7 6 11 11 11 10 6 5 5 4 5 4 4 5 11 12 14 9 9 8 3
6 6 7 7 8 8 8 7 9 10 8 9 12 12 14 12 11 15 15 8 7 7 6 5 5 12 11 12 9 5 5 5 6 5 5 6 7 7 6 4 7 8 4
7 6 7 8 7 8 8 9 9 9 10 11 11 10 9 10 11 11 14 15 12 10 9 6 7 12 12 8 6 7 6 6 3 4 5 5 7 8 7 8 6 5 4
5 7 6 8 8 8 7 9 8 8 8 9 8 8 7 6 7 12 15 18 10 9 6 7 9 13 10 6 6 7 6 3 4 3 4 5 7 7 6 5 3 3 3
7 9 8 9 9 8 6 6 7 8 8 8 7 7 7 5 4 3 4 7 7 4 7 7 8 9 7 5 5 5 4 4 6 5 4 3 4 4 4 5 4 4 3
10 9 8 7 8 10 8 8 8 10 9 7 6 5 5 4 5 9 10 8 9 7 7 5 5 5 5 4 4 5 4 4 5 4 3 4 4 4 4 4 3 3 3
8 8 8 8 8 8 8 10 10 17 12 7 9 7 4 9 5 13 11 11 14 15 6 6 6 7 7 6 6 6 5 7 5 4 4 4 4 4 5 3 3 4 5
9 9 9 8 8 9 9 8 10 8 4 8 7 4 7 7 6 12 12 12 14 13 7 4 6 7 7 6 6 6 7 6 5 4 5 5 4 4 5 5 7 6 4
11 11 7 9 8 8 8 8 7 6 7 3 6 4 8 7 3 6 12 10 3 3 5 6 7 7 7 6 6 6 5 5 5 5 5 5 5 4 3 4 7 9 8
10 8 10 9 7 7 7 9 8 7 6 4 2 2 6 11 10 10 8 6 7 6 4 4 6 7 7 7 7 7 6 6 7 6 6 6 6 5 4 5 7 9 9
9 14 12 9 9 10 8 8 8 8 8 8 6 3 0 1 1 1 3 3 5 5 6 5 5 6 6 7 7 7 7 7 6 7 7 7 6 7 7 8 7 5 7
7 8 16 9 9 9 9 9 10 8 7 6 7 5 5 3 1 3 5 4 4 4 6 6 5 5 5 7 7 7 8 8 8 8 7 8 9 8 8 8 8 9 8
7 8 8 8 9 10 9 9 9 9 10 10 10 12 9 3 3 3 3 5 5 4 4 6 7 7 7 8 8 8 8 9 9 9 9 8 7 8 7 7 7 6 6
7 8 9 8 9 11 9 9 9 9 9 10 10 10 10 10 8 7 4 3 4 5 5 5 5 4 4 5 6 7 8 9 9 9 10 10 9 9 9 9 8 7 6
6 8 8 8 8 8 9 9 8 10 10 9 10 10 10 10 10 11 11 11 11 10 0 2 2 4 5 5 4 3 2 2 3 7 9 7 7 8 9 8 8 8 8
4 6 7 7 8 8 8 9 9 10 10 9 10 10 9 10 10 11 10 10 10 10 11 11 10 13 12 12 10 9 8 9 5 5 2 5 5 8 7 4 3 5 5
3 4 4 4 5 6 7 7 8 9 9 9 9 9 9 9 10 10 10 11 10 9 11 12 13 15 14 10 12 10 9 10 7 5 0 2 3 4 4 6 9 5 5
Wind_Direction
125 127 125 232 194 170 186 217 223 228 224 230 237 251 250 265 257 253 253 262 255 258 247 239 242 235 222 222 214 214 216 207 226 222 198 188 191 202 209 208 205 204 206
33 42 28 350 5 306 268 246 211 225 229 228 217 233 256 247 242 231 251 263 254 262 258 248 247 226 232 226 212 223 221 213 208 216 194 198 195 200 206 204 202 199 187
56 81 108 188 274 254 245 231 231 237 235 223 188 220 249 257 256 242 235 249 249 251 252 238 242 228 238 227 223 219 208 201 199 156 187 196 207 175 198 209 200 178 173
200 225 219 215 241 251 235 228 229 230 230 223 202 218 230 242 234 228 241 266 259 254 256 247 232 223 221 208 203 205 193 196 201 204 181 174 191 206 199 175 141 180 138
243 296 301 306 307 335 305 261 255 237 242 225 230 190 203 224 236 225 221 249 265 258 230 234 235 235 240 216 198 208 193 200 203 213 201 173 183 182 184 172 142 149 111
221 255 273 276 326 304 322 309 321 289 247 190 200 204 234 228 241 232 221 236 234 245 248 241 237 240 239 234 222 215 194 193 206 207 210 198 194 181 148 146 141 138 142
243 275 294 296 316 308 276 261 243 245 207 212 211 208 227 238 252 243 230 234 220 227 223 209 212 211 206 202 202 197 192 193 179 170 181 179 164 160 137 144 153 147 131
294 288 302 296 276 255 256 319 301 294 254 230 224 210 215 242 252 238 224 222 216 220 209 203 192 197 202 194 193 169 185 204 205 198 181 163 137 141 148 150 148 122 89
276 281 287 302 310 314 314 306 291 266 244 230 226 221 223 251 247 232 235 193 203 216 214 201 195 205 198 197 174 163 178 206 195 170 145 145 137 137 140 132 148 153 129
273 281 283 278 279 290 285 297 297 286 282 261 254 238 231 242 255 235 230 218 206 208 213 215 204 207 195 202 176 175 173 203 178 137 120 116 145 153 152 160 155 161 135
268 272 279 284 278 277 279 277 284 279 273 256 243 241 240 223 235 227 200 200 206 212 191 197 185 179 180 198 183 171 198 167 197 149 132 138 146 169 167 160 167 170 159
278 273 275 261 258 272 252 260 256 260 270 262 252 249 241 241 232 239 191 206 187 191 191 192 184 174 172 183 177 164 187 177 165 128 137 155 167 178 180 183 178 174 190
286 286 281 266 272 266 253 265 277 269 262 267 253 251 249 241 243 213 195 200 198 202 181 182 180 174 167 158 190 208 170 188 169 148 165 172 187 186 167 140 141 158 197
306 302 297 305 297 290 275 277 277 276 275 268 255 244 249 229 231 162 174 186 170 183 156 162 183 166 170 154 160 214 195 188 193 189 187 138 115 126 151 156 161 147 136
310 307 300 289 297 305 300 286 278 274 249 259 260 240 229 251 236 194 170 167 176 184 151 154 159 159 167 173 185 198 191 183 187 170 144 151 157 145 144 146 127 114 143
313 306 305 303 302 306 297 299 255 253 265 266 259 251 257 233 219 190 183 156 156 156 177 181 179 180 186 188 190 187 183 195 191 164 156 163 163 170 159 140 123 156 170
318 323 314 302 309 314 315 314 312 323 283 290 275 232 209 270 288 198 179 162 164 156 194 165 175 179 188 185 186 185 195 196 167 169 165 171 170 185 172 184 184 179 183
329 317 320 317 322 327 321 311 306 298 311 305 253 326 12 13 20 154 140 115 113 236 193 188 179 179 182 174 183 189 189 175 185 182 174 180 178 167 161 198 196 193 197
334 335 335 332 329 322 315 322 322 319 327 310 346 106 51 56 81 111 190 144 177 189 183 195 199 185 186 181 193 189 188 186 193 189 198 189 185 162 190 192 193 189 190
354 350 354 346 346 343 341 349 357 8 17 19 351 336 208 209 70 121 207 179 180 186 191 195 200 191 182 185 190 189 193 191 191 195 200 197 195 190 193 191 195 185 195
350 351 358 355 355 349 340 7 3 357 360 4 349 340 301 295 213 174 193 228 196 188 197 203 212 202 201 201 197 197 201 200 206 207 210 210 201 193 195 197 196 190 188
360 358 360 359 356 360 1 7 10 6 8 7 355 351 353 300 318 266 225 219 227 201 193 195 205 212 205 202 197 195 197 205 207 205 209 207 202 204 204 208 202 192 184
7 7 8 7 4 3 7 8 8 5 8 8 2 4 7 1 359 341 282 225 225 228 209 198 215 220 220 221 204 197 198 208 204 203 205 206 200 206 205 207 198 196 188
11 19 19 17 13 14 14 12 12 12 11 14 12 10 6 7 13 15 12 19 16 351 322 118 72 93 82 48 23 35 57 33 195 175 176 182 200 200 201 195 193 197 195
16 26 25 21 20 18 17 20 17 20 19 17 20 17 11 12 19 21 20 22 22 24 19 25 41 52 45 45 39 22 3 2 51 349 111 131 181 186 187 200 184 177 173
48 51 27 16 23 17 16 18 21 21 24 21 23 23 20 20 25 26 22 28 29 31 29 41 33 34 45 43 35 14 15 357 342 6 230 148 154 220 220 203 189 197 192